College Park, MD

10:53 PM EST on November 11, 2019 (GMT -0500)
College Park

Weather History for KCGS - October, 2019

Change the Weather History Date:

Sunday, October 20, 2019

  Actual Average Record
Temperature  
Mean Temperature 52 °F -  
Max Temperature 55 °F 65 °F 85 °F (1969)
Min Temperature 48 °F 43 °F 28 °F (1974)
Degree Days  
Heating Degree Days 14    
Growing Degree Days 2 (Base 50)    
Moisture  
Dew Point 50 °F    
Average Humidity 90    
Maximum Humidity 94    
Minimum Humidity 76    
Precipitation  
Precipitation 0.00 in - - ()
Sea Level Pressure  
Sea Level Pressure 29.94 in    
Wind  
Wind Speed 3 mph (NNE)    
Max Wind Speed 13 mph    
Max Gust Speed 22 mph    
Visibility 7 miles    
Events      
Averages and records for this station are not official NWS values.
T = Trace of Precipitation, MM = Missing Value Source: NWS Daily Summary

Daily Weather History Graph

Daily Weather History Graph

Search for Another Location

Airport or City:

Astronomy

Oct. 20, 2019 Rise Set
Actual Time 7:21 AM EDT 6:22 PM EDT
Civil Twilight 6:54 AM EDT 6:49 PM EDT
Nautical Twilight 6:23 AM EDT 7:20 PM EDT
Astronomical Twilight 5:52 AM EDT 7:51 PM EDT
Moon 11:31 PM EDT (10/20) 1:46 PM EDT (10/20)
Length of Visible Light 11h 54m
Length of Day
11h 00m
Waning Gibbous, 59% of the Moon is Illuminated
Oct 20
Waning Gibbous
Oct 21
Last Quarter
Oct 27
New
Nov 4
First Quarter
Nov 12
Full

Hourly Weather History & Observations

Time (EDT) Temp. Dew Point Humidity Pressure Visibility Wind Dir Wind Speed Gust Speed Precip Events Conditions
12:03 AM 49.6 °F 43.5 °F 79% 30.02 in 10.0 mi Calm Calm - N/A   Clear
12:23 AM 49.6 °F 43.3 °F 79% 30.01 in 10.0 mi Calm Calm - N/A   Clear
12:43 AM 49.3 °F 43.5 °F 81% 30.01 in 10.0 mi Calm Calm - N/A   Clear
1:03 AM 49.1 °F 43.9 °F 82% 30.00 in 10.0 mi Calm Calm - N/A   Clear
1:23 AM 48.7 °F 43.7 °F 83% 30.00 in 10.0 mi Calm Calm - N/A   Clear
1:43 AM 48.7 °F 44.1 °F 84% 30.00 in 10.0 mi Calm Calm - N/A   Clear
2:03 AM 48.6 °F 44.4 °F 86% 29.99 in 10.0 mi Calm Calm - N/A   Mostly Cloudy
2:23 AM 49.1 °F 45.5 °F 87% 29.99 in 10.0 mi Calm Calm - N/A   Overcast
3:03 AM 50.9 °F 45.0 °F 80% 29.97 in 10.0 mi Calm Calm - N/A   Overcast
3:23 AM 50.9 °F 44.6 °F 79% 29.96 in 10.0 mi Calm Calm - N/A   Overcast
3:43 AM 51.4 °F 44.6 °F 77% 29.96 in 10.0 mi Calm Calm - N/A   Overcast
4:03 AM 51.8 °F 44.8 °F 77% 29.96 in 10.0 mi Calm Calm - N/A   Overcast
4:23 AM 52.2 °F 45.1 °F 77% 29.95 in 10.0 mi Calm Calm - N/A   Overcast
4:43 AM 52.2 °F 45.0 °F 76% 29.95 in 10.0 mi Calm Calm - N/A   Overcast
5:03 AM 52.5 °F 45.3 °F 76% 29.95 in 10.0 mi Calm Calm - N/A   Overcast
5:23 AM 52.3 °F 45.5 °F 78% 29.96 in 10.0 mi Calm Calm - N/A   Overcast
5:43 AM 52.2 °F 46.4 °F 81% 29.96 in 10.0 mi Calm Calm - N/A   Overcast
6:03 AM 51.8 °F 47.3 °F 85% 29.97 in 7.0 mi Calm Calm - N/A   Overcast
6:23 AM 51.8 °F 48.4 °F 88% 29.97 in 7.0 mi Calm Calm - N/A   Overcast
6:43 AM 51.8 °F 50.0 °F 94% 29.98 in 5.0 mi Calm Calm - N/A   Overcast
7:03 AM 52.2 °F 50.4 °F 94% 29.97 in 7.0 mi Calm Calm - N/A   Overcast
7:23 AM 52.2 °F 50.4 °F 94% 29.97 in 5.0 mi Calm Calm - N/A   Overcast
7:43 AM 52.2 °F 50.4 °F 94% 29.97 in 7.0 mi North 3.5 mph - N/A   Overcast
8:03 AM 52.3 °F 50.5 °F 94% 29.96 in 7.0 mi Calm Calm - N/A   Overcast
8:23 AM 52.7 °F 50.9 °F 94% 29.96 in 7.0 mi Calm Calm - N/A   Overcast
8:43 AM 52.7 °F 50.9 °F 94% 29.97 in 7.0 mi Calm Calm - N/A   Overcast
9:03 AM 52.7 °F 50.9 °F 94% 29.97 in 7.0 mi NE 3.5 mph - N/A   Overcast
9:23 AM 52.7 °F 50.9 °F 94% 29.98 in 5.0 mi Calm Calm - N/A   Overcast
9:43 AM 52.7 °F 50.9 °F 94% 29.98 in 4.0 mi Calm Calm - N/A   Overcast
10:03 AM 53.1 °F 51.3 °F 94% 29.98 in 4.0 mi Calm Calm - N/A   Overcast
10:23 AM 53.6 °F 51.8 °F 94% 29.97 in 4.0 mi NNE 3.5 mph - N/A   Overcast
10:43 AM 53.8 °F 52.0 °F 94% 29.96 in 5.0 mi NE 4.6 mph - N/A   Overcast
11:03 AM 54.1 °F 52.3 °F 94% 29.96 in 7.0 mi NE 8.1 mph - N/A   Overcast
11:23 AM 54.0 °F 52.2 °F 94% 29.95 in 7.0 mi ENE 6.9 mph - N/A   Overcast
11:43 AM 54.0 °F 52.0 °F 93% 29.95 in 5.0 mi NE 5.8 mph - N/A   Overcast
12:03 PM 53.8 °F 52.0 °F 94% 29.94 in 7.0 mi North 6.9 mph - N/A   Overcast
12:23 PM 53.8 °F 52.0 °F 94% 29.92 in 4.0 mi NNE 10.4 mph - N/A   Overcast
12:43 PM 53.8 °F 52.0 °F 94% 29.91 in 5.0 mi NNE 9.2 mph - N/A   Overcast
1:03 PM 53.8 °F 52.0 °F 94% 29.91 in 5.0 mi NNE 8.1 mph - N/A   Overcast
1:23 PM 53.6 °F 51.8 °F 94% 29.88 in 3.0 mi NE 8.1 mph 18.4 mph N/A   Overcast
1:43 PM 53.8 °F 52.0 °F 94% 29.86 in 4.0 mi NNE 8.1 mph 18.4 mph N/A   Overcast
2:03 PM 54.5 °F 52.7 °F 94% 29.86 in 4.0 mi NNE 8.1 mph - N/A   Overcast
2:23 PM 54.7 °F 52.9 °F 94% 29.85 in 4.0 mi NNE 8.1 mph 16.1 mph N/A   Overcast
2:43 PM 55.2 °F 53.2 °F 93% 29.84 in 3.0 mi North 8.1 mph 21.9 mph N/A   Overcast
3:03 PM 55.0 °F 53.1 °F 93% 29.85 in 2.5 mi NNE 6.9 mph - N/A   Overcast
3:23 PM 55.0 °F 53.2 °F 94% 29.85 in 4.0 mi NNE 12.7 mph 16.1 mph N/A   Overcast
3:43 PM 55.2 °F 53.2 °F 93% 29.85 in 3.0 mi North 8.1 mph 17.3 mph N/A   Overcast
4:03 PM 55.4 °F 53.2 °F 92% 29.86 in 3.0 mi North 9.2 mph 17.3 mph N/A   Overcast
4:23 PM 55.4 °F 53.2 °F 92% 29.86 in 4.0 mi North 6.9 mph - N/A   Overcast
4:43 PM 55.4 °F 53.2 °F 92% 29.87 in 4.0 mi North 9.2 mph - N/A   Overcast
5:03 PM 55.4 °F 53.6 °F 94% 29.87 in 4.0 mi North 5.8 mph - N/A   Overcast
5:23 PM 55.4 °F 53.4 °F 93% 29.87 in 4.0 mi North 6.9 mph - N/A   Overcast
5:43 PM 54.9 °F 53.1 °F 94% 29.88 in 5.0 mi North 10.4 mph - N/A   Overcast
6:03 PM 54.9 °F 53.1 °F 94% 29.88 in 5.0 mi North 9.2 mph - N/A   Overcast
6:23 PM 54.9 °F 52.9 °F 93% 29.88 in 7.0 mi North 6.9 mph - N/A   Overcast
6:43 PM 54.7 °F 52.9 °F 94% 29.89 in 7.0 mi North 6.9 mph - N/A   Overcast
7:03 PM 54.5 °F 52.7 °F 94% 29.89 in 5.0 mi North 8.1 mph - N/A   Overcast
7:23 PM 54.5 °F 52.7 °F 94% 29.90 in 7.0 mi North 8.1 mph - N/A   Overcast
7:43 PM 54.5 °F 52.7 °F 94% 29.90 in 10.0 mi North 4.6 mph - N/A   Overcast
8:03 PM 54.5 °F 52.7 °F 94% 29.92 in 7.0 mi North 5.8 mph - N/A   Overcast
8:23 PM 54.1 °F 52.3 °F 94% 29.92 in 10.0 mi North 4.6 mph - N/A   Overcast
8:43 PM 54.1 °F 52.3 °F 94% 29.93 in 10.0 mi North 6.9 mph - N/A   Overcast
9:03 PM 54.1 °F 52.3 °F 94% 29.93 in 10.0 mi North 4.6 mph - N/A   Overcast
9:23 PM 54.0 °F 52.2 °F 94% 29.93 in 10.0 mi North 3.5 mph - N/A   Overcast
9:43 PM 54.0 °F 52.2 °F 94% 29.94 in 10.0 mi North 5.8 mph - N/A   Overcast
10:03 PM 53.8 °F 52.0 °F 94% 29.95 in 10.0 mi North 3.5 mph - N/A   Overcast
10:23 PM 53.8 °F 52.0 °F 94% 29.95 in 10.0 mi North 6.9 mph - N/A   Overcast
10:43 PM 54.0 °F 52.2 °F 94% 29.96 in 10.0 mi North 6.9 mph - N/A   Overcast
11:03 PM 54.0 °F 52.2 °F 94% 29.96 in 10.0 mi North 4.6 mph - N/A   Overcast
11:23 PM 53.8 °F 52.0 °F 94% 29.96 in 10.0 mi NNW 4.6 mph - N/A   Overcast
11:43 PM 54.0 °F 52.2 °F 94% 29.96 in 10.0 mi North 3.5 mph - N/A   Overcast